Location: Julian California
(33.0790°N, 116.6010°W)
Time: 15:14:37
(UTC-08:00)

Daily predictions for brighter satellites

Satellite Brightness Start Highest point End
(mag) Time Altitude Azimuth Time Altitude Azimuth Time Altitude Azimuth
MONITOR-E 4.2 17:57:36 10° SSE 18:00:32 55° ENE 18:03:30 10° N
MOS 1-B Rocket 4.1 17:54:32 10° SSE 18:01:06 67° ENE 18:06:54 10° N
Cosmos 1812 3.4 18:00:36 10° NNE 18:04:06 32° E 18:07:35 10° SE
NOSS 0 Rocket 4.1 17:58:39 10° NNW 18:04:51 83° WSW 18:11:03 10° SSE
Ariane Rocket 4.4 18:00:33 10° S 18:05:22 44° W 18:10:14 10° NNW
ALOS 2.3 18:01:45 10° SSE 18:06:24 85° ENE 18:11:05 10° N
Cosmos 1238 4.3 18:06:26 10° S 18:09:32 82° E 18:13:17 10° N
Cosmos 44 4.1 18:11:15 10° N 18:15:49 33° NE 18:20:33 10° ESE
CENTAUR R/B 2.4 18:10:32 10° SSW 18:16:16 78° ESE 18:22:49 10° NNE
Cosmos 2082 4.4 18:12:51 10° SW 18:18:20 57° WNW 18:23:53 10° NNE
Cosmos 2333 Rocket 3.5 18:14:29 10° NW 18:19:51 46° WSW 18:25:11 10° S
CZ-3C R/B 3.5 18:18:16 10° S 18:20:36 15° SE 18:24:46 10° ESE
Aureole 3 4.2 18:15:44 10° S 18:22:09 87° E 18:27:11 10° N
Cosmos 2056 Rocket 4.3 18:18:06 10° NNW 18:23:27 60° WSW 18:28:44 10° S
Meteor 1-25 Rocket 4.1 18:20:31 10° S 18:26:00 71° E 18:31:32 10° NNE
Cosmos 1437 Rocket 3.6 18:23:18 10° SSE 18:26:48 30° E 18:30:22 10° NNE
Lacrosse 5 2.1 18:21:52 10° NW 18:26:54 71° SW 18:31:54 10° SSE
SPOT 3 Rocket 3.5 18:22:39 10° SSE 18:27:49 83° ENE 18:33:03 10° NNW
Shenzhou-11 Module 3.2 18:26:43 10° WNW 18:29:31 38° SW 18:32:19 10° SE
Cosmos 1452 Rocket 3.6 18:24:30 10° N 18:29:40 55° ENE 18:34:47 10° SSE
Cosmos 158 Rocket 3.9 18:25:49 10° SSW 18:30:43 83° WNW 18:35:35 10° NNE
Cosmos 1048 Rocket 4.0 18:25:44 10° S 18:30:59 62° ESE 18:36:13 10° NNE
GPS 2-05 Rocket1 4.3 18:28:53 10° SSW 18:31:14 19° SSE 18:32:20 16° ESE
EO 1 Del DPAF 3.9 18:28:43 10° N 18:32:28 59° WNW 18:36:12 10° SSW
Iridium 4 Rocket 3.4 18:29:43 10° NNE 18:34:18 46° E 18:38:30 10° SSE
Gbstr 26 Del rocket 2.9 18:35:51 10° SSW 18:39:26 48° SE 18:41:22 24° ENE
COSMOS 2455 3.8 18:36:09 10° SSE 18:40:50 24° ESE 18:42:50 20° ENE
Cosmos 1378 Rocket 3.5 18:40:44 10° N 18:45:07 66° E 18:49:30 10° SSE
Tsikada Rocket 4.2 18:41:15 10° SSE 18:47:21 49° E 18:53:29 10° NNE
Cosmos 1782 Rocket 3.6 18:43:39 10° S 18:48:00 57° E 18:52:21 10° NNE
Sich 1 Rocket 3.5 18:45:09 10° S 18:49:40 84° E 18:54:09 10° N
Cosmos 1420 Rocket 3.9 18:44:56 10° NNW 18:50:12 70° ENE 18:55:29 10° SSE
FengYun 1-2 T 4.3 18:51:23 10° S 18:56:53 82° WSW 19:02:24 10° NNW
BREEZE-M DEB (TANK) 2.7 18:57:16 10° SW 18:59:52 80° SE 19:03:04 22° NE
OAO 2 Rocket 3.2 18:56:32 10° W 19:01:29 79° N 19:03:24 37° ENE
Okean 2 Rocket 3.1 19:01:29 10° S 19:05:44 53° E 19:10:01 10° NNE
Cosmos 1464 Rocket 4.1 19:01:45 10° N 19:07:51 73° W 19:13:57 10° S
SJ-6B 2.5 19:04:25 10° SSE 19:08:08 82° ENE 19:11:57 10° N
FREGAT/IRIS 3.9 19:05:31 10° S 19:08:17 40° W 19:11:06 10° NNW
Tiangong 2 1.3 19:07:32 10° WNW 19:10:20 66° NW 19:10:20 66° NW
SeaSat 1 2.5 19:12:43 45° E 19:13:39 52° ENE 19:18:26 10° NNW
ARGOS Delta rocket 3.7 19:10:22 10° N 19:15:10 85° WNW 19:19:42 10° SSW
HJ-1C 4.0 19:12:48 10° S 19:16:09 57° W 19:19:31 10° NNW
Envisat 2.8 19:12:11 10° SSE 19:17:13 71° ENE 19:22:16 10° N
Thor Agena Rocket 3.9 19:18:48 10° N 19:23:48 62° WNW 19:28:45 10° SSW
Cosmos 44 Rocket 3.5 19:21:39 10° NNW 19:26:42 72° WSW 19:29:03 32° SSE
Okean 1 4.1 19:23:24 10° NNW 19:27:15 50° W 19:31:04 10° SSW
ERS-2 4.3 19:25:52 10° SSW 19:29:00 27° W 19:32:09 10° NW
SL-16 R/B 2.9 19:23:54 10° NNW 19:29:23 52° WSW 19:34:49 10° S
USA 215 4.0 19:24:42 12° NNE 19:30:27 48° NW 19:36:39 10° WSW
Sakura Rocket 4.3 19:27:11 10° WSW 19:33:04 61° S 19:34:52 48° SE
CZ-2D R/B 4.0 19:33:14 35° SSW 19:34:32 52° W 19:38:20 10° NNW
Cosmos 494 Rocket 3.8 19:29:22 10° SSW 19:34:34 89° ESE 19:36:01 49° NNE
Meteor 1-13 Rocket 4.0 19:29:52 10° N 19:35:22 71° E 19:35:22 71° E
Cosmos 921 Rocket 3.4 19:32:07 10° NNW 19:36:34 62° WSW 19:37:34 47° SSW
Cosmos 1603 4.1 19:42:23 10° NNW 19:46:32 48° N 19:46:32 48° N
Resurs 01 Rocket 3.7 19:57:45 21° NNW 19:57:45 21° NNW 19:59:13 10° NNW
Cosmos 1634 Rocket 4.4 19:50:32 10° N 19:54:52 48° N 19:54:52 48° N
USA 267 4.4 20:01:53 29° NNE 20:01:53 29° NNE 20:06:11 10° NNW
Cosmos 2263 Rocket 3.5 19:58:20 10° SSW 20:00:56 29° SSW 20:00:56 29° SSW
CZ-4C R/B 4.0 20:04:02 10° NNW 20:08:04 29° NNE 20:08:04 29° NNE
COSMOS 2455 3.8 20:20:44 10° SW 20:26:08 43° WNW 20:26:08 43° WNW
